This is the latest recevied weather packets stored in our database for station/object K7TSD. If no packets are shown the sender has not sent any weather packets the latest 10 day(s).
| Time | Temp. | Humidity | Pressure | Rain* | Wind** | Luminosity | Snow |
|---|---|---|---|---|---|---|---|
| 1778186774 | 11.11° C | 81% | 1010.9 hPa | 0 mm | - | 519 W/m² | - |
| 1778186471 | 12.22° C | 78% | 1010.9 hPa | 0 mm | - | 305 W/m² | - |
| 1778186169 | 11.67° C | 79% | 1010.7 hPa | 0 mm | - | 880 W/m² | - |
| 1778185867 | 11.67° C | 79% | 1010.9 hPa | 0 mm | - | 589 W/m² | - |
| 1778185562 | 11.11° C | 81% | 1010.9 hPa | 0 mm | - | 796 W/m² | - |
| 1778185258 | 11.67° C | 84% | 1010.7 hPa | 0 mm | - | 759 W/m² | - |
| 1778184954 | 10.56° C | 83% | 1010.8 hPa | 0 mm | - | 780 W/m² | - |
| 1778184651 | 10.56° C | 85% | 1010.7 hPa | 0 mm | - | 551 W/m² | - |
| 1778184346 | 10.56° C | 88% | 1010.9 hPa | 0 mm | - | 344 W/m² | - |
| 1778184042 | 10° C | 86% | 1011 hPa | 0 mm | - | 470 W/m² | - |
| 1778183740 | 10° C | 90% | 1011.3 hPa | 0 mm | - | 278 W/m² | - |
| 1778183437 | 9.44° C | 89% | 1011.3 hPa | 0 mm | - | 268 W/m² | - |
| 1778183133 | 9.44° C | 89% | 1011.3 hPa | 0 mm | - | 275 W/m² | - |
| 1778182829 | 9.44° C | 91% | 1011.4 hPa | 1.78 mm | - | 207 W/m² | - |
| 1778182527 | 8.89° C | 92% | 1011.5 hPa | 0 mm | - | 209 W/m² | - |
| 1778182224 | 8.89° C | 93% | 1011.5 hPa | 1.27 mm | - | 266 W/m² | - |
| 1778181920 | 8.33° C | 92% | 1011.5 hPa | 1.27 mm | - | 367 W/m² | - |
| 1778181617 | 8.33° C | 91% | 1011.5 hPa | 1.78 mm | - | 175 W/m² | - |
| 1778181312 | 8.33° C | 91% | 1011.6 hPa | 3.56 mm | - | 125 W/m² | - |
| 1778181009 | 8.33° C | 92% | 1011.7 hPa | 1.78 mm | - | 121 W/m² | - |
| 1778180707 | 8.33° C | 92% | 1011.7 hPa | 1.27 mm | - | 153 W/m² | - |
| 1778180405 | 8.33° C | 91% | 1011.3 hPa | 1.27 mm | - | 165 W/m² | - |
| 1778180103 | 8.89° C | 91% | 1011.6 hPa | 1.78 mm | - | 216 W/m² | - |
| 1778179799 | 8.89° C | 88% | 1011.1 hPa | 1.78 mm | - | 231 W/m² | - |
| 1778179497 | 9.44° C | 85% | 1011.4 hPa | 0 mm | - | 196 W/m² | - |
* Rain latest hour (hover to see other rain measurements)
** Current wind speed in m/s (hover to see current wind gust speed)